Current Weather Conditions: station 62121

sailwx.info

Wind from 200 at 13 knots

Air temperature 14.8° C
Dewpoint 13.2° C

Last reported at 2019-Jun-16 21:00 UTC.
Time now 2019-Jun-17 03:19 UTC

Location: N 53°30' E 002°42'.
View on Google Maps.

See reports from other nearby stations

  
Tides and Currents Weather Stations Pressure Air Temp Water Temp Dewpoint Dewpoint Depression Visibility Wind Speed Wind Dir Waves Ship Positions
date/time (UTC)wind fromknots sea level pressurealtimeterstation pressurevisibilityair tempwater tempwave heightnotes
2019-Jun-16 21:00 200 13 14.8
2019-Jun-16 20:00 200 14 14.9
2019-Jun-16 19:00 200 17 15.1
2019-Jun-16 18:00 200 14 15.9
2019-Jun-16 17:00 200 12 15.2
2019-Jun-16 16:00 190 17 15.4
2019-Jun-16 15:00 180 18 14.7
2019-Jun-16 14:00 180 19 14.9
2019-Jun-16 13:00 180 15 15.2
2019-Jun-16 12:00 190 14 15.4
2019-Jun-16 11:00 190 13 15.0
2019-Jun-16 10:00 190 11 14.8
2019-Jun-16 09:00 210 8 13.9
2019-Jun-16 08:00 220 11 13.3
2019-Jun-16 07:00 220 13 13.2
2019-Jun-16 06:00 220 12 13.2
2019-Jun-16 05:00 220 13 13.1
2019-Jun-16 04:00 220 13 13.2
2019-Jun-16 03:00 200 13 13.5
2019-Jun-16 02:00 200 14 13.7
2019-Jun-16 01:00 200 14 14.1
2019-Jun-16 00:00 200 14 14.3
2019-Jun-15 23:00 200 14 14.0
2019-Jun-15 22:00 190 14 14.0
2019-Jun-15 21:00 190 17 14.1
2019-Jun-15 20:00 180 15 14.2
2019-Jun-15 19:00 160 13 14.8
2019-Jun-15 18:00 180 11 15.0
2019-Jun-15 17:00 170 18 15.3
2019-Jun-15 16:00 170 13 15.8
2019-Jun-15 15:00 170 7 16.0
2019-Jun-15 14:00 170 4 17.0
2019-Jun-15 13:00 190 2 17.1
2019-Jun-15 12:00 190 4 17.1
2019-Jun-15 11:00 160 2 15.4
2019-Jun-15 10:00 13.9
2019-Jun-15 09:00 260 4 13.8
2019-Jun-15 08:00 250 6 13.9
2019-Jun-15 07:00 230 8 14.7
2019-Jun-15 06:00 210 6 14.5
2019-Jun-15 05:00
2019-Jun-15 04:00 140 7 13.8
2019-Jun-15 03:00 140 7 13.6